Location: ????????
(60.4333°N, 46.4710°E)
Time: 04:44:28
(UTC+00:00)

Cosmos 1943 Rocket - Pass Details

Date: 25 November 2020
Orbit: 811 x 844 km, 71.0° (Epoch: 19 January)

Event Time Altitude Azimuth Distance (km) Brightness Sun altitude
Rises 16:20:42 0° 319° (NW) 3,355 6.0 -30.3°
Reaches altitude 10° 16:23:31 10° 307° (NW) 2,423 5.3 -30.6°
Maximum altitude 16:27:52 24° 254° (WSW) 1,636 4.2 -31.2°
Drops below altitude 10° 16:32:14 10° 202° (SSW) 2,426 4.6 -31.7°
Enters shadow 16:32:49 - 199° (SSW) 2,605 4.8 -31.7°
